Location: Diati
(11.8376°N, 2.5966°E)
Time: 17:47:42
(UTC+00:00)

Exosat Rocket - Pass Details

Date: 21 September 2020
Orbit: 761 x 2514 km, 72.3° (Epoch: 19 October)

Event Time Altitude Azimuth Distance (km) Brightness Sun altitude
Rises 18:11:08 0° 182° (S) 4,677 7.6 -7.0°
Reaches altitude 10° 18:14:38 10° 177° (S) 3,424 6.8 -7.8°
Maximum altitude 18:22:02 46° 106° (ESE) 1,379 4.4 -9.6°
Drops below altitude 10° 18:27:29 10° 34° (NE) 2,533 5.9 -11.0°
Sets 18:29:43 0° 28° (NNE) 3,363 6.6 -11.5°
